Location: Camps Bay
(33.9517°S, 18.3844°E)
Time: 12:41:17
(UTC+00:00)

Cosmos 2360 - Pass Details

Date: 18 January 2020
Orbit: 846 x 856 km, 70.8° (Epoch: 16 February)

Event Time Altitude Azimuth Distance (km) Brightness Sun altitude
Rises 02:15:48 0° 201° (SSW) 3,442 7.6 -17.7°
Reaches altitude 10° 02:18:16 10° 200° (SSW) 2,501 6.9 -17.3°
Maximum altitude 02:24:02 88° 114° (ESE) 863 4.2 -16.4°
Drops below altitude 10° 02:29:45 10° 20° (NNE) 2,478 6.4 -15.5°
Sets 02:32:11 0° 20° (NNE) 3,407 7.2 -15.1°
